Tracking 28794 objects as of 19-Apr-2024
HD Live streaming from Space Station
objects crossing your sky now

NOAA 16 DEB

Track NOAA 16 DEB now!
10-day predictions


NORAD ID: 41377
Int'l Code: 2000-055JW
Perigee: 811.0 km
Apogee: 849.3 km
Inclination: 98.8 °
Period: 101.4 minutes
Semi major axis: 7201 km
RCS: Unknown
Launch date: September 21, 2000
Source: United States (US)
Launch site: AIR FORCE WESTERN TEST RANGE (AFWTR)

Note: This is SATELLITE DEBRIS
Your satellite tracking list
Your tracking list is empty




NASA's NSSDC Master Catalog

Two Line Element Set (TLE):
1 41377U 00055JW  24110.05475259  .00010564  00000-0  48987-2 0  9991
2 41377  98.8194 204.2252 0026613 131.9729 228.3721 14.20688934427058
Source of the keplerian elements: AFSPC